IRIDIUM 33 DEB, 36080

Orbit data source: Space-Track

IRIDIUM 33 DEB, 36080 is space debris in LEO originally from a launch on Sun, 14 Sep 1997 UTC launched from the Tyuratam Missile And Space Complex (TTMTR). The debris from Iridium 33, an American commercial communications satellite, has been tracked extensively since its accidental collision with the defunct Russian satellite Cosmos 2251 in 2009. This event, occurring at high speed in low Earth orbit (LEO), generated thousands of pieces of space debris, significantly increasing the risk of further collisions. The Iridium 33 debris cloud has impacted space traffic management and orbital debris mitigation strategies, making it a subject of ongoing study in space situational awareness.

Loading next visibility...
Identifier
36080, 1997-051VM
Orbit
LEO
Country
Flag of USUS
Related business
Manufacturer
Unknown
Mission
Spacecraft
Bus & Motor
Unknown
Mass
Unknown
Launch date (UTC)
1997-09-14 (28 years ago)
Launch vehicle
Unknown
Launch site
Tyuratam Missile And Space Complex (TTMTR)
Object type
Payload
Rocket body
Debris
Shape & HBR
Unknown shape, 0.1 m
Radar Cross Section
Small (<0.1 m²)

Expand to show TLE details & history
Last TLE update: 2 days ago

TLE from 2 days ago
0 IRIDIUM 33 DEB
1 36080U 97051VM  25353.31072422  .00001555  00000-0  42458-3 0  9990
2 36080  86.3193   5.1242 0018893 135.9522 224.3190 14.46631520475097
Epoch: 2025-12-19T07:27Z
TLE epoch observation values (Epoch: 2025-12-19T07:27:26.572Z)
Latitude
-0.00002°
Longitude
165.10978°
Altitude
749.371 km
Speed
7.475 km/s
True Right ascension
00h 20m 29s
True Declination
0° 00' 00"
Sunlit
Object was in daylight at epoch
Visualization orbit readout
Latitude
Unknown
Longitude
Unknown
Altitude
Unknown
Speed
Unknown
Apparent Right ascension
Unknown
Apparent Declination
Unknown
Sunlit
N/A
Visualization observer readout
Local Sidereal Time
14:40:52
Azimuth
Unknown
Elevation
Unknown
Doppler factor
Unknown
Orbital elements
Apogee altitude
747.056 km
Perigee altitude
720.184 km
Semi-major axis
7,111.757 km
Eccentricity
0.00189
Inclination
86.3193°
RAAN
5.1242°
Arg. of periapsis
135.9522°
True anomaly
224.168°
Mean anomaly
224.319°
Eccentric anomaly
224.24347°
Mean motion
3.61891 °/min
Orbital period
99.48 mins
BSTAR
0.00042458
Loading maneuver chart data...
Computing Atmospheric mass density...
Loading historical data...
Loading historical data...
Loading historical data...
Loading historical data...
Loading historical data...
Loading historical data...
Loading historical data...

Documentation

Showing up to 5 results
|